Погода в Арштах

Россия / Республика Ингушетия     43°08′21″N   45°07′39″E
темп.,
°C
ветер,
м/с
пор.,
м/с
влажн.,
%
обл.,
%
осадки,
мм/ч
давл.,
гПа
погр.,
м
17 апреля, сб
сб1700:00+12з11675 0.0 101811
03:00+11зюз116744 0.0 101810
06:00+11зюз116712 0.0 101710
09:00+18ссз224766 0.0 1017445
12:00+20сз774798 0.0 10181519
15:00+19сз6648100 0.0 10191499
18:00+14зсз6873100 0.0 1021531
21:00+13сз3578100 0.1 1022621
18 апреля, вс
вс1800:00+12ссз2377100 0.0 1022371
03:00+11с2381100 0.1 1021316
06:00+11всв128599 0.0 1021288
09:00+12вюв348291 0.0 1019620
12:00+17в336099 0.0 10171219
15:00+18в4555100 0.1 10161203
18:00+16всв1372100 0.4 101891
21:00+13св1193100 4.1 101966
19 апреля, пн
пн1900:00+11ююз009691 0.0 101813
03:00+11ююв1197100 0.0 101819
06:00+11юв0195100 0.0 101818
09:00+17вюв2268100 0.0 1017497
12:00+21в4450100 0.0 1015938
15:00+23в664310 0.0 10131261
18:00+18в47576 0.0 1013199
21:00+14всв1167100 0.0 101311
20 апреля, вт
вт2000:00+13всв0171100 0.0 101110
03:00+12в1174100 0.0 101010
06:00+13вюв1276100 0.0 100835
09:00+19всв2257100 0.0 1005243
12:00+24в3346100 0.0 1003436
15:00+27в3340100 0.0 1002472
18:00+21ссз2261100 0.0 100433
21:00+16зсз91378100 0.0 1011792
21 апреля, ср
ср2100:00+12з71176100 0.5 1016831
03:00+12з4766100 0.6 1018552
06:00+12ю1170100 0.1 101947
09:00+12всв2366100 0.1 1020683
12:00+13св3363100 0.0 1020601
15:00+14с445792 0.0 10201045
18:00+11ссз3469100 0.0 1022553
21:00+10з3475100 0.2 1023293